Location: Etiwanda
(34.1261°N, 117.5237°W)
Time: 03:36:22
(UTC+00:00)

Cosmos 1939 Rocket - Pass Details

Date: 03 August 2024
Orbit: 511 x 552 km, 97.5° (Epoch: 13 September)

Event Time Altitude Azimuth Distance (km) Brightness Sun altitude
Rises 12:16:51 0° 13° (NNE) 2,633 7.0 -9.5°
Reaches altitude 10° 12:18:56 10° 15° (NNE) 1,746 6.0 -9.1°
Maximum altitude 12:22:42 76° 101° (ESE) 540 2.9 -8.5°
Drops below altitude 10° 12:26:29 10° 187° (S) 1,755 5.1 -7.8°
Enters shadow 12:29:55 -5° 190° (S) 3,214 6.4 -7.1°
